This is the latest recevied weather packets stored in our database for station/object W1LBM. If no packets are shown the sender has not sent any weather packets the latest 1 day(s).
| Time | Temp. | Humidity | Pressure | Rain* | Wind** | Luminosity | Snow |
|---|---|---|---|---|---|---|---|
| 1777996915 | 21.67° C | 60% | 1013.7 hPa | 0 mm | 0.89 m/s, 173° | 689 W/m² | - |
| 1777996611 | 22.22° C | 57% | 1013.7 hPa | 0 mm | 0 m/s | 688 W/m² | - |
| 1777996307 | 22.22° C | 58% | 1013.7 hPa | 0 mm | 2.24 m/s, 142° | 686 W/m² | - |
| 1777996004 | 22.22° C | 58% | 1013.8 hPa | 0 mm | 0.45 m/s, 173° | 699 W/m² | - |
| 1777995700 | 22.78° C | 57% | 1013.7 hPa | 0 mm | 0.45 m/s, 130° | 731 W/m² | - |
| 1777995397 | 22.78° C | 56% | 1013.8 hPa | 0 mm | 0.45 m/s, 147° | 679 W/m² | - |
| 1777995094 | 21.67° C | 57% | 1013.7 hPa | 0 mm | 0.89 m/s, 155° | 687 W/m² | - |
| 1777994791 | 21.67° C | 58% | 1013.6 hPa | 0 mm | 0.45 m/s, 141° | 492 W/m² | - |
| 1777994487 | 22.22° C | 60% | 1013.7 hPa | 0 mm | 0 m/s | 509 W/m² | - |
| 1777994182 | 22.22° C | 57% | 1013.7 hPa | 0 mm | 0.89 m/s, 124° | 365 W/m² | - |
| 1777993880 | 21.67° C | 57% | 1013.6 hPa | 0 mm | 0.89 m/s, 134° | 368 W/m² | - |
| 1777993576 | 21.67° C | 56% | 1013.6 hPa | 0 mm | 1.79 m/s, 169° | 343 W/m² | - |
| 1777993273 | 21.11° C | 58% | 1013.6 hPa | 0 mm | 1.34 m/s, 193° | 370 W/m² | - |
| 1777992968 | 20.56° C | 60% | 1013.6 hPa | 0 mm | 0 m/s | 287 W/m² | - |
| 1777992667 | 20.56° C | 59% | 1013.6 hPa | 0 mm | 0.89 m/s, 151° | 278 W/m² | - |
| 1777992364 | 20° C | 61% | 1013.7 hPa | 0 mm | 0.89 m/s, 143° | 278 W/m² | - |
| 1777992062 | 20.56° C | 60% | 1013.7 hPa | 0 mm | 0.45 m/s, 150° | 193 W/m² | - |
| 1777991759 | 20.56° C | 61% | 1013.9 hPa | 0 mm | 0 m/s | 329 W/m² | - |
| 1777991456 | 20° C | 60% | 1013.9 hPa | 0 mm | 2.24 m/s, 189° | 205 W/m² | - |
| 1777991153 | 20° C | 61% | 1013.9 hPa | 0 mm | 1.34 m/s, 198° | 160 W/m² | - |
| 1777990850 | 20° C | 62% | 1013.8 hPa | 0 mm | 0 m/s | 191 W/m² | - |
| 1777990548 | 20.56° C | 60% | 1013.9 hPa | 0 mm | 0.89 m/s, 189° | 213 W/m² | - |
| 1777990244 | 20.56° C | 60% | 1014.1 hPa | 0 mm | 0.89 m/s, 171° | 267 W/m² | - |
| 1777989941 | 20° C | 60% | 1013.8 hPa | 0 mm | 1.34 m/s, 175° | 341 W/m² | - |
| 1777989638 | 20° C | 61% | 1013.8 hPa | 0 mm | 2.24 m/s, 191° | 168 W/m² | - |
* Rain latest hour (hover to see other rain measurements)
** Current wind speed in m/s (hover to see current wind gust speed)